This is the latest recevied weather packets stored in our database for station/object KD9JB-1. If no packets are shown the sender has not sent any weather packets the latest 10 day(s).
| Time | Temp. | Humidity | Pressure | Rain* | Wind** | Luminosity | Snow |
|---|---|---|---|---|---|---|---|
| 1777852900 | 17.78° C | 45% | 1013.1 hPa | 0 mm | - | - | - |
| 1777852600 | 17.78° C | 46% | 1013 hPa | 0 mm | - | - | - |
| 1777852300 | 18.33° C | 44% | 1012.9 hPa | 0 mm | - | - | - |
| 1777852000 | 18.33° C | 43% | 1012.7 hPa | 0 mm | - | - | - |
| 1777851700 | 18.33° C | 43% | 1012.5 hPa | 0 mm | - | - | - |
| 1777851400 | 18.33° C | 44% | 1012.3 hPa | 0 mm | - | - | - |
| 1777851100 | 18.89° C | 44% | 1012.3 hPa | 0 mm | - | - | - |
| 1777850800 | 18.89° C | 43% | 1012.3 hPa | 0 mm | - | - | - |
| 1777850500 | 18.89° C | 43% | 1012.4 hPa | 0 mm | - | - | - |
| 1777850200 | 18.89° C | 42% | 1012.4 hPa | 0 mm | - | - | - |
| 1777849900 | 18.89° C | 41% | 1012.5 hPa | 0 mm | - | - | - |
| 1777849600 | 18.89° C | 41% | 1012.5 hPa | 0 mm | - | - | - |
| 1777849300 | 19.44° C | 41% | 1012.5 hPa | 0 mm | - | - | - |
| 1777849000 | 19.44° C | 40% | 1012.6 hPa | 0 mm | - | - | - |
| 1777848700 | 19.44° C | 40% | 1012.7 hPa | 0 mm | - | - | - |
| 1777848400 | 19.44° C | 40% | 1012.7 hPa | 0 mm | - | - | - |
| 1777848100 | 20° C | 40% | 1012.6 hPa | 0 mm | - | - | - |
| 1777847800 | 19.44° C | 41% | 1012.7 hPa | 0 mm | - | - | - |
| 1777847500 | 19.44° C | 41% | 1012.8 hPa | 0 mm | - | - | - |
| 1777847200 | 20° C | 40% | 1013 hPa | 0 mm | - | - | - |
| 1777846900 | 20° C | 40% | 1013.1 hPa | 0 mm | - | - | - |
| 1777846600 | 20° C | 41% | 1013.1 hPa | 0 mm | - | - | - |
| 1777846300 | 20° C | 42% | 1013.5 hPa | 0 mm | - | - | - |
| 1777846000 | 20° C | 41% | 1013.4 hPa | 0 mm | - | - | - |
| 1777845700 | 19.44° C | 40% | 1013.5 hPa | 0 mm | - | - | - |
* Rain latest hour (hover to see other rain measurements)
** Current wind speed in m/s (hover to see current wind gust speed)